Time,TemperatureF,DewpointF,PressureIn,WindDirection,WindDirectionDegrees,WindSpeedMPH,WindSpeedGustMPH,Humidity,HourlyPrecipIn,Conditions,Clouds,dailyrainin,SolarRadiationWatts/m^2,SoftwareType,DateUTC
2013-01-18 00:02:00,22.0,19.0,-100.00,South,183,0.0,6.0,87,0.00,,,0.01,0.000000,,2013-01-18 07:02:00,
2013-01-18 00:12:00,22.0,19.0,-100.00,South,183,0.0,6.0,87,0.00,,,0.01,0.000000,,2013-01-18 07:12:00,
2013-01-18 00:22:00,22.0,19.0,-100.00,South,183,0.0,6.0,87,0.00,,,0.01,0.000000,,2013-01-18 07:22:00,
2013-01-18 00:52:00,21.0,17.0,-100.00,NE,55,2.0,7.0,85,0.00,,,0.01,0.000000,,2013-01-18 07:52:00,
2013-01-18 01:02:00,21.0,17.0,-100.00,NE,55,2.0,7.0,85,0.00,,,0.01,0.000000,,2013-01-18 08:02:00,
2013-01-18 01:53:00,20.0,16.0,-100.00,North,7,2.0,6.0,86,0.00,,,0.01,0.000000,,2013-01-18 08:53:00,
2013-01-18 02:02:00,20.0,16.0,-100.00,North,7,2.0,6.0,86,0.00,,,0.01,0.000000,,2013-01-18 09:02:00,
2013-01-18 02:12:00,20.0,16.0,-100.00,North,7,2.0,6.0,86,0.00,,,0.01,0.000000,,2013-01-18 09:12:00,
2013-01-18 02:22:00,20.0,16.0,-100.00,North,7,2.0,6.0,86,0.00,,,0.01,0.000000,,2013-01-18 09:22:00,
2013-01-18 02:52:00,21.0,16.0,-100.00,ENE,70,1.0,7.0,81,0.00,,,0.01,0.000000,,2013-01-18 09:52:00,
2013-01-18 03:02:00,21.0,16.0,-100.00,ENE,70,1.0,7.0,81,0.00,,,0.01,0.000000,,2013-01-18 10:02:00,
2013-01-18 03:12:00,21.0,16.0,-100.00,ENE,70,1.0,7.0,81,0.00,,,0.01,0.000000,,2013-01-18 10:12:00,
2013-01-18 03:22:00,21.0,16.0,-100.00,ENE,70,1.0,7.0,81,0.00,,,0.01,0.000000,,2013-01-18 10:22:00,
2013-01-18 03:52:00,18.0,16.0,-100.00,East,79,0.0,7.0,90,0.00,,,0.01,0.000000,,2013-01-18 10:52:00,
2013-01-18 04:02:00,18.0,16.0,-100.00,East,79,0.0,7.0,90,0.00,,,0.01,0.000000,,2013-01-18 11:02:00,
2013-01-18 04:12:00,18.0,16.0,-100.00,East,79,0.0,7.0,90,0.00,,,0.01,0.000000,,2013-01-18 11:12:00,
2013-01-18 04:22:00,18.0,16.0,-100.00,East,79,0.0,7.0,90,0.00,,,0.01,0.000000,,2013-01-18 11:22:00,
2013-01-18 04:53:00,17.0,15.0,-100.00,NE,54,0.0,6.0,92,0.00,,,0.01,0.000000,,2013-01-18 11:53:00,
2013-01-18 05:53:00,17.0,15.0,-100.00,East,86,1.0,6.0,90,0.00,,,0.01,0.000000,,2013-01-18 12:53:00,
2013-01-18 06:02:00,17.0,15.0,-100.00,East,86,1.0,6.0,90,0.00,,,0.01,0.000000,,2013-01-18 13:02:00,
2013-01-18 06:12:00,17.0,15.0,-100.00,East,86,1.0,6.0,90,0.00,,,0.01,0.000000,,2013-01-18 13:12:00,
2013-01-18 06:22:00,17.0,15.0,-100.00,East,86,1.0,6.0,90,0.00,,,0.01,0.000000,,2013-01-18 13:22:00,
2013-01-18 06:53:00,14.0,13.0,-100.00,East,87,0.0,5.0,96,0.00,,,0.01,0.000000,,2013-01-18 13:53:00,
2013-01-18 07:12:00,14.0,13.0,-100.00,East,87,0.0,5.0,96,0.00,,,0.01,0.000000,,2013-01-18 14:12:00,
2013-01-18 07:22:00,14.0,13.0,-100.00,East,87,0.0,5.0,96,0.00,,,0.01,0.000000,,2013-01-18 14:22:00,
2013-01-18 07:53:00,15.0,13.0,-100.00,NE,46,0.0,6.0,93,0.00,,,0.01,0.000000,,2013-01-18 14:53:00,
2013-01-18 08:03:00,15.0,13.0,-100.00,NE,46,0.0,6.0,93,0.00,,,0.01,0.000000,,2013-01-18 15:03:00,
2013-01-18 08:53:00,14.0,13.0,-100.00,ENE,70,0.0,5.0,95,0.00,,,0.01,0.000000,,2013-01-18 15:53:00,
2013-01-18 09:12:00,14.0,13.0,-100.00,ENE,70,0.0,5.0,95,0.00,,,0.01,0.000000,,2013-01-18 16:12:00,
2013-01-18 09:22:00,14.0,13.0,-100.00,ENE,70,0.0,5.0,95,0.00,,,0.01,0.000000,,2013-01-18 16:22:00,
2013-01-18 09:53:00,15.0,12.0,-100.00,SSW,209,0.0,4.0,89,0.00,,,-99.99,22.000000,,2013-01-18 16:53:00,
2013-01-18 10:12:00,15.0,12.0,-100.00,SSW,209,0.0,4.0,89,0.00,,,-99.99,22.000000,,2013-01-18 17:12:00,
2013-01-18 10:22:00,15.0,12.0,-100.00,SSW,209,0.0,4.0,89,0.00,,,-99.99,22.000000,,2013-01-18 17:22:00,
2013-01-18 10:53:00,22.0,13.0,-100.00,North,8,0.0,3.0,67,0.00,,,0.01,114.000000,,2013-01-18 17:53:00,
2013-01-18 11:03:00,22.0,13.0,-100.00,North,8,0.0,3.0,67,0.00,,,0.01,114.000000,,2013-01-18 18:03:00,
2013-01-18 11:53:00,24.0,15.0,-100.00,NNE,18,2.0,6.0,68,0.00,,,0.01,355.000000,,2013-01-18 18:53:00,
2013-01-18 12:53:00,32.0,18.0,-100.00,East,86,2.0,6.0,55,0.00,,,-99.99,376.000000,,2013-01-18 19:53:00,
2013-01-18 13:53:00,35.0,16.0,-100.00,NW,309,0.0,10.0,46,0.00,,,0.01,411.000000,,2013-01-18 20:53:00,
2013-01-18 14:03:00,35.0,16.0,-100.00,NW,309,0.0,10.0,46,0.00,,,0.01,411.000000,,2013-01-18 21:03:00,
2013-01-18 14:53:00,36.0,18.0,-100.00,South,171,1.0,13.0,48,0.01,,,0.02,432.000000,,2013-01-18 21:53:00,
2013-01-18 15:53:00,36.0,17.0,-100.00,WNW,297,1.0,8.0,46,0.01,,,0.03,374.000000,,2013-01-18 22:53:00,
2013-01-18 16:02:00,36.0,17.0,-100.00,WNW,297,1.0,8.0,46,0.01,,,0.03,374.000000,,2013-01-18 23:02:00,
2013-01-18 16:53:00,39.0,19.0,-100.00,South,176,1.0,7.0,45,0.01,,,0.04,242.000000,,2013-01-18 23:53:00,
2013-01-18 17:02:00,39.0,19.0,-100.00,South,176,1.0,7.0,45,0.01,,,0.04,242.000000,,2013-01-19 00:02:00,
2013-01-18 17:12:00,39.0,19.0,-100.00,South,176,1.0,7.0,45,0.01,,,0.04,242.000000,,2013-01-19 00:12:00,
2013-01-18 17:22:00,39.0,19.0,-100.00,South,176,1.0,7.0,45,0.01,,,0.04,242.000000,,2013-01-19 00:22:00,
2013-01-18 17:53:00,44.0,10.0,-100.00,NNW,327,4.0,7.0,24,0.01,,,0.05,67.000000,,2013-01-19 00:53:00,
2013-01-18 18:02:00,44.0,10.0,-100.00,NNW,327,4.0,7.0,24,0.01,,,0.05,67.000000,,2013-01-19 01:02:00,
2013-01-18 18:12:00,44.0,10.0,-100.00,NNW,327,4.0,7.0,24,0.01,,,0.05,67.000000,,2013-01-19 01:12:00,
2013-01-18 18:22:00,44.0,10.0,-100.00,NNW,327,4.0,7.0,24,0.01,,,0.05,67.000000,,2013-01-19 01:22:00,
2013-01-18 18:52:00,44.0,7.0,-100.00,South,179,5.0,15.0,21,0.01,,,0.05,6.000000,,2013-01-19 01:52:00,
2013-01-18 19:02:00,44.0,7.0,-100.00,South,179,5.0,15.0,21,0.01,,,0.05,6.000000,,2013-01-19 02:02:00,
2013-01-18 19:12:00,44.0,7.0,-100.00,South,179,5.0,15.0,21,0.01,,,0.05,6.000000,,2013-01-19 02:12:00,
2013-01-18 19:22:00,44.0,7.0,-100.00,South,179,5.0,15.0,21,0.01,,,0.05,6.000000,,2013-01-19 02:22:00,
2013-01-18 19:53:00,38.0,17.0,-100.00,SE,134,0.0,17.0,42,0.00,,,0.05,0.000000,,2013-01-19 02:53:00,
2013-01-18 20:02:00,38.0,17.0,-100.00,SE,134,0.0,17.0,42,0.00,,,0.05,0.000000,,2013-01-19 03:02:00,
2013-01-18 20:12:00,38.0,17.0,-100.00,SE,134,0.0,17.0,42,0.00,,,0.05,0.000000,,2013-01-19 03:12:00,
2013-01-18 20:22:00,38.0,17.0,-100.00,SE,134,0.0,17.0,42,0.00,,,0.05,0.000000,,2013-01-19 03:22:00,
2013-01-18 20:52:00,32.0,18.0,-100.00,ENE,58,2.0,7.0,56,0.00,,,0.05,0.000000,,2013-01-19 03:52:00,
2013-01-18 21:02:00,32.0,18.0,-100.00,ENE,58,2.0,7.0,56,0.00,,,0.05,0.000000,,2013-01-19 04:02:00,
2013-01-18 21:12:00,32.0,18.0,-100.00,ENE,58,2.0,7.0,56,0.00,,,0.05,0.000000,,2013-01-19 04:12:00,
2013-01-18 21:22:00,32.0,18.0,-100.00,ENE,58,2.0,7.0,56,0.00,,,0.05,0.000000,,2013-01-19 04:22:00,
2013-01-18 21:53:00,30.0,20.0,-100.00,SSE,167,0.0,7.0,66,0.00,,,0.05,0.000000,,2013-01-19 04:53:00,
2013-01-18 22:03:00,30.0,20.0,-100.00,SSE,167,0.0,7.0,66,0.00,,,0.05,0.000000,,2013-01-19 05:03:00,
2013-01-18 22:12:00,30.0,20.0,-100.00,SSE,167,0.0,7.0,66,0.00,,,0.05,0.000000,,2013-01-19 05:12:00,
2013-01-18 22:22:00,30.0,20.0,-100.00,SSE,167,0.0,7.0,66,0.00,,,0.05,0.000000,,2013-01-19 05:22:00,
2013-01-18 22:53:00,25.0,18.0,-100.00,NNW,342,0.0,5.0,74,0.00,,,0.05,0.000000,,2013-01-19 05:53:00,
2013-01-18 23:02:00,25.0,18.0,-100.00,NNW,342,0.0,5.0,74,0.00,,,0.05,0.000000,,2013-01-19 06:02:00,
2013-01-18 23:12:00,25.0,18.0,-100.00,NNW,342,0.0,5.0,74,0.00,,,0.05,0.000000,,2013-01-19 06:12:00,
2013-01-18 23:22:00,25.0,18.0,-100.00,NNW,342,0.0,5.0,74,0.00,,,0.05,0.000000,,2013-01-19 06:22:00,
2013-01-18 23:53:00,25.0,17.0,-100.00,NNW,341,0.0,4.0,70,0.00,,,-99.99,0.000000,,2013-01-19 06:53:00,